FW3278 Weather Reports


Display with metric or nautical units.
time (UTC)temp
F
wind
direction
speed
MPH
gust
MPH
rain 1hr
in
rain 24hr
in
rain mn
in
humidity
%
barometer
mb
20260903071803 57 157 4.0 11.0 0.00 0.04 0.04 65 1015.2
20260903070903 58 157 3.0 9.0 0.00 0.04 0.04 64 1015.0
20260903070004 58 157 4.0 10.0 0.00 0.04 0.04 64 1014.8
20260903065403 58 157 4.0 9.0 0.00 0.04 0.04 63 1014.7
20260903064503 59 157 4.0 13.0 0.00 0.04 0.04 63 1014.6
20260903063603 59 157 4.0 9.0 0.00 0.04 0.04 62 1014.6
20260903062724 59 157 4.0 14.0 0.00 0.04 0.04 62 1014.6
20260903061803 60 157 4.0 11.0 0.00 0.04 0.04 59 1014.4
20260903060903 61 157 4.0 14.0 0.00 0.04 0.04 59 1014.3
20260903060003 61 157 4.0 14.0 0.00 0.04 0.04 60 1014.1
20260903055403 61 157 4.0 14.0 0.00 0.04 0.04 61 1014.0
20260903054524 61 157 6.0 14.0 0.00 0.04 0.04 61 1014.0
20260903053603 61 157 5.0 17.0 0.00 0.04 0.04 61 1013.8
20260903052703 61 157 5.0 15.0 0.00 0.04 0.04 62 1013.8
20260903051803 61 157 5.0 12.0 0.00 0.04 0.04 61 1013.6
20260903050903 61 157 5.0 10.0 0.00 0.04 0.04 63 1013.6
20260903050003 60 157 6.0 16.0 0.00 0.04 0.04 63 1013.4
20260903045403 60 157 5.0 16.0 0.00 0.04 0.04 66 1013.5
20260903044503 60 157 7.0 13.0 0.00 0.04 0.04 68 1013.4
20260903043603 59 157 7.0 16.0 0.00 0.04 0.04 70 1013.3
20260903042703 59 157 6.0 19.0 0.00 0.04 0.04 69 1013.2
20260903041803 59 157 6.0 15.0 0.00 0.04 0.04 70 1013.2
20260903040924 60 157 5.0 14.0 0.00 0.04 0.04 69 1013.0
20260903040003 59 157 5.0 14.0 0.00 0.04 0.04 73 1012.8
20260903035424 59 157 5.0 13.0 0.00 0.04 0.04 73 1012.9
20260903034503 57 157 5.0 16.0 0.00 0.04 0.04 78 1012.9
20260903033603 56 157 4.0 17.0 0.00 0.04 0.04 82 1012.7
20260903032703 56 157 4.0 14.0 0.00 0.04 0.04 84 1012.9
20260903031803 55 157 3.0 11.0 0.00 0.04 0.04 85 1012.7
20260903030903 55 157 4.0 12.0 0.00 0.04 0.04 85 1012.8
20260903030003 54 157 4.0 12.0 0.00 0.04 0.04 85 1012.7
20260903025424 54 157 5.0 15.0 0.00 0.04 0.04 85 1012.9
20260903024503 54 157 6.0 16.0 0.04 0.04 0.04 86 1012.7
20260903023603 53 157 5.0 13.0 0.04 0.04 0.04 87 1012.7
20260903022703 53 157 5.0 14.0 0.04 0.04 0.04 87 1012.6
20260903021803 54 157 5.0 12.0 0.04 0.04 0.04 87 1012.6
20260903020903 54 157 5.0 17.0 0.04 0.04 0.04 86 1012.6
20260903020003 55 157 4.0 15.0 0.04 0.04 0.04 84 1012.6
20260903015403 56 157 3.0 15.0 0.04 0.04 0.04 82 1012.4
20260903014503 57 157 3.0 11.0 0.00 0.00 0.00 78 1012.1
20260903013603 57 157 6.0 11.0 0.00 0.00 0.00 76 1011.7
20260903012703 57 157 7.0 14.0 0.00 0.00 0.00 76 1011.8
20260903011803 57 157 7.0 17.0 0.00 0.00 0.00 77 1012.0
20260903010903 57 157 5.0 15.0 0.00 0.00 0.00 77 1011.9
20260903010003 57 157 6.0 12.0 0.00 0.00 0.00 78 1012.0
20260903005403 57 157 6.0 16.0 0.00 0.00 0.00 77 1011.9
20260903004503 56 157 6.0 19.0 0.00 0.00 0.00 77 1011.8
20260903003603 55 157 5.0 15.0 0.00 0.00 0.00 78 1011.8
20260903002703 55 157 6.0 16.0 0.00 0.00 0.00 79 1011.6
20260903001803 55 157 5.0 18.0 0.00 0.00 0.00 77 1011.6
20260903000903 55 157 7.0 13.0 0.00 0.00 0.00 76 1011.3
20260903000003 55 157 7.0 17.0 0.00 0.00 0.00 74 1011.3
20260902235403 55 157 7.0 19.0 0.00 0.00 0.00 74 1011.2
20260902234503 56 157 8.0 20.0 0.00 0.00 0.00 74 1011.1
20260902233603 55 157 7.0 21.0 0.00 0.00 0.00 74 1011.1
20260902232703 55 157 8.0 15.0 0.00 0.00 0.00 74 1011.0
20260902231803 55 157 9.0 19.0 0.00 0.00 0.00 73 1010.8
20260902230903 55 157 9.0 20.0 0.00 0.00 0.00 72 1010.7
20260902230003 56 157 9.0 19.0 0.00 0.00 0.00 72 1010.6
20260902225424 56 157 9.0 19.0 0.00 0.00 0.00 72 1010.6
20260902224503 56 157 9.0 18.0 0.00 0.00 0.00 72 1010.6
20260902223624 55 157 9.0 19.0 0.00 0.00 0.00 73 1010.4
20260902222703 54 157 8.0 19.0 0.00 0.00 0.00 74 1010.5
20260902221803 54 157 8.0 18.0 0.00 0.00 0.00 75 1010.5
20260902220903 53 157 6.0 16.0 0.00 0.00 0.00 75 1010.5
20260902220003 53 157 6.0 20.0 0.00 0.00 0.00 75 1010.3
20260902215403 53 157 7.0 17.0 0.00 0.00 0.00 75 1010.6
20260902214503 53 157 5.0 17.0 0.00 0.00 0.00 75 1010.3
20260902213603 52 157 5.0 10.0 0.00 0.00 0.00 74 1010.2
20260902212724 52 157 5.0 15.0 0.00 0.00 0.00 74 1010.1
20260902211803 52 157 6.0 11.0 0.00 0.00 0.00 74 1009.9
20260902210903 52 157 7.0 14.0 0.00 0.00 0.00 74 1009.6
20260902210003 52 157 6.0 12.0 0.00 0.00 0.00 74 1009.3
20260902205424 52 157 7.0 16.0 0.00 0.00 0.00 73 1009.4
20260902204503 52 157 6.0 15.0 0.00 0.00 0.00 73 1009.4
20260902203603 52 157 7.0 16.0 0.00 0.00 0.00 72 1009.3
20260902202703 52 157 7.0 16.0 0.00 0.00 0.00 72 1009.2
20260902201803 52 157 5.0 14.0 0.00 0.00 0.00 71 1009.3
20260902200903 52 157 6.0 15.0 0.00 0.00 0.00 71 1009.4
20260902200003 52 157 7.0 15.0 0.00 0.00 0.00 71 1009.4
20260902195403 52 157 8.0 15.0 0.00 0.00 0.00 71 1009.4
20260902194503 52 157 7.0 16.0 0.00 0.00 0.00 71 1009.3
20260902193603 52 157 6.0 15.0 0.00 0.00 0.00 71 1009.4
20260902192703 52 157 6.0 13.0 0.00 0.00 0.00 71 1009.3
20260902191803 52 157 6.0 11.0 0.00 0.00 0.00 71 1009.1
20260902190903 52 157 6.0 14.0 0.00 0.00 0.00 71 1009.2
20260902190003 52 157 5.0 13.0 0.00 0.00 0.00 70 1009.1
20260902185403 52 157 5.0 13.0 0.00 0.00 0.00 70 1009.2
20260902184503 52 157 5.0 12.0 0.00 0.00 0.00 70 1009.2
20260902183603 52 157 5.0 13.0 0.00 0.00 0.00 71 1009.0
20260902182703 52 157 5.0 14.0 0.00 0.00 0.00 71 1009.1
20260902181803 51 157 4.0 10.0 0.00 0.00 0.00 71 1009.0
20260902180903 51 157 4.0 11.0 0.00 0.00 0.00 72 1009.0
20260902180005 51 157 5.0 11.0 0.00 0.00 0.00 72 1009.1
20260902175403 51 157 4.0 11.0 0.00 0.00 0.00 72 1009.0
20260902174524 51 157 4.0 10.0 0.00 0.00 0.00 72 1009.0
20260902173603 51 157 3.0 9.0 0.00 0.00 0.00 72 1009.2
20260902172703 51 157 3.0 9.0 0.00 0.00 0.00 72 1009.4
20260902171824 51 157 2.0 10.0 0.00 0.00 0.00 72 1009.4
20260902170903 52 157 3.0 4.0 0.00 0.00 0.00 71 1009.3
20260902170003 52 157 5.0 9.0 0.00 0.00 0.00 71 1009.3
20260902165403 52 157 5.0 13.0 0.00 0.00 0.00 71 1009.4
20260902164503 51 157 5.0 11.0 0.00 0.00 0.00 72 1009.6
20260902163603 52 157 5.0 11.0 0.00 0.00 0.00 73 1009.8
20260902162703 52 157 4.0 10.0 0.00 0.00 0.00 73 1010.0
20260902161803 52 157 5.0 11.0 0.00 0.00 0.00 73 1010.1
20260902160924 51 157 5.0 13.0 0.00 0.00 0.00 74 1010.2
20260902160003 51 157 5.0 12.0 0.00 0.00 0.00 75 1010.1
20260902155402 51 157 4.0 13.0 0.00 0.00 0.00 76 1010.1
20260902154503 51 157 4.0 11.0 0.00 0.00 0.00 76 1010.1
20260902153602 50 157 4.0 14.0 0.00 0.00 0.00 77 1010.2
20260902152703 50 157 3.0 6.0 0.00 0.00 0.00 76 1010.2
20260902151802 50 157 4.0 10.0 0.00 0.00 0.00 76 1010.2
20260902150903 50 157 3.0 10.0 0.00 0.00 0.00 76 1010.2
20260902150003 50 157 4.0 9.0 0.00 0.00 0.00 76 1010.0
20260902145402 50 157 4.0 9.0 0.00 0.00 0.00 76 1010.0
20260902144502 50 157 4.0 9.0 0.00 0.00 0.00 76 1010.0
20260902143602 50 157 3.0 9.0 0.00 0.02 0.00 75 1010.0
20260902142705 50 157 3.0 6.0 0.00 0.03 0.00 75 1010.1
20260902141803 50 157 3.0 6.0 0.00 0.04 0.00 74 1010.2
20260902140903 51 157 3.0 8.0 0.00 0.04 0.00 73 1010.3
20260902140025 51 157 4.0 8.0 0.00 0.05 0.00 73 1010.4
20260902135403 51 157 4.0 9.0 0.00 0.05 0.05 72 1010.5
20260902134523 51 157 5.0 11.0 0.00 0.05 0.05 71 1010.5
20260902133602 51 157 5.0 14.0 0.00 0.05 0.05 71 1010.5
20260902132702 51 157 5.0 12.0 0.00 0.05 0.05 71 1010.6
20260902131802 51 157 5.0 10.0 0.00 0.05 0.05 71 1010.7
20260902130923 51 157 5.0 12.0 0.00 0.06 0.05 71 1010.9
20260902130002 52 157 5.0 11.0 0.00 0.06 0.05 71 1010.9
20260902125403 52 157 5.0 10.0 0.00 0.06 0.05 71 1010.9
20260902124502 52 157 5.0 13.0 0.00 0.06 0.05 71 1011.1
20260902123602 52 157 5.0 10.0 0.00 0.06 0.05 71 1011.1
20260902122702 52 157 5.0 10.0 0.00 0.06 0.05 71 1011.2
20260902121802 53 157 5.0 13.0 0.00 0.08 0.05 71 1011.4
20260902120923 53 157 7.0 13.0 0.00 0.08 0.05 72 1011.6
20260902120003 53 157 6.0 18.0 0.00 0.08 0.05 72 1011.6
20260902115402 53 157 5.0 14.0 0.00 0.08 0.05 73 1011.7
20260902114503 52 157 5.0 12.0 0.00 0.08 0.05 74 1011.6
20260902113623 52 157 4.0 12.0 0.00 0.08 0.05 75 1011.6
20260902112702 52 157 4.0 8.0 0.00 0.08 0.05 77 1011.6
20260902111802 52 157 2.0 9.0 0.00 0.08 0.05 78 1011.7
20260902110923 52 157 1.0 6.0 0.00 0.08 0.05 78 1011.7
20260902110003 52 157 1.0 4.0 0.00 0.08 0.05 78 1011.7
20260902105402 52 157 0.0 4.0 0.00 0.08 0.05 78 1011.7
20260902104502 52 157 0.0 2.0 0.00 0.09 0.05 79 1011.8
20260902103602 52 157 1.0 3.0 0.00 0.10 0.05 79 1011.8
20260902102702 51 157 1.0 2.0 0.00 0.10 0.05 79 1011.8
20260902101802 51 157 0.0 2.0 0.00 0.10 0.05 80 1011.7
20260902095403 51 0 0.0 2.0 0.00 0.10 0.05 80 1011.5
20260902094504 51 0 0.0 0.0 0.00 0.10 0.05 79 1011.4
20260902093624 51 0 0.0 0.0 0.00 0.10 0.05 78 1011.3
20260902092724 51 0 0.0 0.0 0.00 0.10 0.05 77 1011.2
20260902091803 51 0 0.0 0.0 0.00 0.10 0.05 77 1011.1
20260902090903 51 0 0.0 0.0 0.00 0.10 0.05 76 1011.1
20260902090004 51 0 0.0 0.0 0.00 0.10 0.05 75 1011.0
20260902085403 52 0 0.0 0.0 0.00 0.10 0.05 75 1011.1
20260902084524 52 0 0.0 0.0 0.00 0.10 0.05 74 1011.1
20260902083603 52 0 0.0 0.0 0.00 0.10 0.05 73 1011.2
20260902082703 53 0 0.0 0.0 0.00 0.10 0.05 72 1011.2
20260902081803 54 0 0.0 0.0 0.00 0.10 0.05 72 1011.1
20260902080924 54 0 0.0 2.0 0.00 0.10 0.05 72 1011.1
20260902080004 54 157 0.0 2.0 0.00 0.10 0.05 71 1011.1
20260902075403 55 157 0.0 2.0 0.00 0.10 0.05 70 1011.1
20260902074503 55 157 0.0 4.0 0.00 0.10 0.05 69 1011.1
20260902073624 56 157 0.0 2.0 0.00 0.10 0.05 68 1011.0
20260902072724 56 157 1.0 4.0 0.00 0.10 0.05 67 1011.0